METAR UND TAF INFORMATION
EHBK 151255Z AUTO 19014KT 170V240 9999 -RA SCT030 BKN037 OVC042 13/07 Q1002 TEMPO 7000 -SHRA FEW020CB

 FLUGHAFENKARTE

 RUNWAY INFORMATION
Runway 03 Runway length 8202 ft Runway width 148 ft
Runway elevation 365 ft Runway displaced threshold 820 ft Runway heading 33
Runway 21 Runway length 8202 ft Runway width 148 ft
Runway elevation 370 ft Runway displaced threshold 820 ft Runway heading 213

 AIRPORT FREQUENCIES
Type APP Name BEEK APP Frequency 120.2 MHZ
Type ATIS Name ATIS Frequency 124.575 MHZ
Type GND Name BEEK GND Frequency 121.825 MHZ
Type TWR Name BEEK TWR Frequency 119.475 MHZ

 AIRPORT NEAR NAVIGATION AIDS
Type VOR-DME Name Maastricht Frequency 108600 KHZ
Type NDB Name Maastricht Frequency 373 KHZ